Date String (YYYY-MM-DD hh:mm:ss) UTC,Instrument flags,Ambient pressure (hPa),Sample flow (lpm),Bypass flow (lpm),Sample temperature (°C),Ambient temperature (°C),ASC tube jacket temperature (°C),LED temperature (°C),Box temperature (°C),Sample RH (%),Span deviation,Mass concentration (μg/m³),Mass concentration (μg/m³),Mass concentration (μg/m³)
DateTimeUTC,F1_M11,P_M11,Q1_M11,Q2_M11,T1_M11,T2_M11,T3_M11,T4_M11,T5_M11,U1_M11,ZSPAN_M11,X0_M11,X2_M11,X1_M11
2022-05-20 17:00:00,,0818.9,4.99,0.00,24.8,23.7,00.0,33.7,26.7,22.3,0000.0,0003.85,0002.70,0002.51
2022-05-20 17:01:00,,0818.9,5.00,0.00,24.8,23.7,00.0,33.7,26.7,22.1,0000.0,0003.38,0002.73,0002.53
2022-05-20 17:02:00,,0818.8,5.00,0.00,24.8,23.7,00.0,33.7,26.7,21.9,0000.0,0003.32,0002.77,0002.55
2022-05-20 17:03:00,,0818.8,5.00,0.00,24.8,23.7,00.0,33.7,26.7,21.8,0000.0,0003.34,0002.79,0002.58
2022-05-20 17:04:00,,0818.9,5.01,0.00,24.8,23.7,00.0,33.7,26.7,21.9,0000.0,0003.36,0002.82,0002.61
2022-05-20 17:05:00,,0818.9,4.99,0.00,24.8,23.7,00.0,33.7,26.7,22.0,0000.0,0003.40,0002.86,0002.66
2022-05-20 17:06:00,,0818.9,5.00,0.00,24.8,23.7,00.0,33.7,26.7,22.2,0000.0,0003.55,0002.93,0002.71
2022-05-20 17:07:00,,0818.9,4.98,0.00,24.8,23.7,00.0,33.7,26.7,21.9,0000.0,0003.54,0002.96,0002.75
2022-05-20 17:08:00,,0818.9,5.01,0.00,24.8,23.7,00.0,33.7,26.7,21.9,0000.0,0003.65,0003.02,0002.79
2022-05-20 17:09:00,,0818.9,5.00,0.00,24.8,23.7,00.0,33.7,26.7,21.8,0000.0,0003.74,0003.10,0002.83
2022-05-20 17:10:00,,0819.0,5.00,0.00,24.8,23.7,00.0,33.7,26.7,22.1,0000.0,0003.83,0003.12,0002.86
2022-05-20 17:11:00,,0819.0,5.01,0.00,24.8,23.7,00.0,33.7,26.7,22.2,0000.0,0003.89,0003.15,0002.89
2022-05-20 17:12:00,,0819.0,5.01,0.00,24.8,23.7,00.0,33.7,26.7,22.1,0000.0,0003.87,0003.15,0002.89
2022-05-20 17:13:00,,0819.1,4.99,0.00,24.8,23.8,00.0,33.7,26.7,22.1,0000.0,0003.79,0003.14,0002.91
2022-05-20 17:14:00,,0819.1,5.01,0.00,24.8,23.8,00.0,33.7,26.7,22.1,0000.0,0003.81,0003.15,0002.92
2022-05-20 17:15:00,,0819.2,5.00,0.00,24.8,23.7,00.0,33.7,26.7,21.9,0000.0,0003.84,0003.16,0002.94
2022-05-20 17:16:00,,0819.3,4.99,0.00,24.8,23.8,00.0,33.7,26.7,22.4,0000.0,0003.90,0003.18,0002.95
2022-05-20 17:17:00,,0819.3,5.00,0.00,24.8,23.8,00.0,33.7,26.7,22.3,0000.0,0003.84,0003.15,0002.92
2022-05-20 17:18:00,,0819.3,5.01,0.00,24.8,23.8,00.0,33.7,26.7,21.8,0000.0,0003.86,0003.11,0002.86
2022-05-20 17:19:00,,0819.2,4.98,0.00,24.8,23.8,00.0,33.7,26.7,21.6,0000.0,0004.00,0003.08,0002.81
2022-05-20 17:20:00,,0819.3,5.01,0.00,24.8,23.8,00.0,33.7,26.7,21.5,0000.0,0003.94,0003.01,0002.76
2022-05-20 17:21:00,,0819.3,5.01,0.00,24.8,23.8,00.0,33.7,26.7,21.3,0000.0,0003.77,0002.93,0002.69
2022-05-20 17:22:00,,0819.3,5.00,0.00,24.8,23.8,00.0,33.7,26.7,21.4,0000.0,0003.71,0002.88,0002.63
2022-05-20 17:23:00,,0819.2,5.00,0.00,24.8,23.8,00.0,33.7,26.7,21.3,0000.0,0003.63,0002.81,0002.57
2022-05-20 17:24:00,,0819.4,5.00,0.00,24.8,23.7,00.0,33.7,26.7,20.7,0000.0,0003.53,0002.72,0002.49
2022-05-20 17:25:00,,0819.4,5.00,0.00,24.8,23.7,00.0,33.7,26.6,20.7,0000.0,0003.46,0002.64,0002.40
2022-05-20 17:26:00,,0819.3,4.99,0.00,24.7,23.7,00.0,33.7,26.6,20.5,0000.0,0003.34,0002.53,0002.31
2022-05-20 17:27:00,,0819.2,5.00,0.00,24.7,23.6,00.0,33.7,26.6,20.4,0000.0,0003.25,0002.45,0002.23
2022-05-20 17:28:00,,0819.3,5.02,0.00,24.7,23.6,00.0,33.7,26.6,20.4,0000.0,0003.19,0002.39,0002.18
2022-05-20 17:29:00,,0819.3,5.00,0.00,24.7,23.6,00.0,33.7,26.6,20.5,0000.0,0003.12,0002.37,0002.16
2022-05-20 17:30:00,,0819.4,5.01,0.00,24.7,23.6,00.0,33.7,26.6,20.6,0000.0,0002.87,0002.32,0002.12
2022-05-20 17:31:00,,0819.4,4.99,0.00,24.7,23.6,00.0,33.7,26.6,20.6,0000.0,0002.79,0002.28,0002.10
2022-05-20 17:32:00,,0819.5,5.00,0.00,24.7,23.6,00.0,33.7,26.6,20.5,0000.0,0002.79,0002.27,0002.10
2022-05-20 17:33:00,,0819.6,5.01,0.00,24.7,23.6,00.0,33.7,26.6,20.5,0000.0,0002.66,0002.21,0002.07
2022-05-20 17:34:00,,0819.8,4.99,0.00,24.7,23.7,00.0,33.7,26.6,20.6,0000.0,0002.59,0002.17,0002.05
2022-05-20 17:35:00,,0819.8,5.01,0.00,24.7,23.7,00.0,33.7,26.7,20.6,0000.0,0002.59,0002.16,0002.05
2022-05-20 17:36:00,,0819.8,4.99,0.00,24.7,23.7,00.0,33.7,26.7,20.6,0000.0,0002.57,0002.15,0002.05
2022-05-20 17:37:00,,0819.9,5.00,0.00,24.7,23.7,00.0,33.7,26.7,20.6,0000.0,0002.59,0002.17,0002.07
2022-05-20 17:38:00,,0819.8,5.01,0.00,24.8,23.7,00.0,33.7,26.7,20.4,0000.0,0002.64,0002.19,0002.08
2022-05-20 17:39:00,,0819.8,4.99,0.00,24.8,23.7,00.0,33.7,26.7,20.4,0000.0,0002.80,0002.21,0002.09
2022-05-20 17:40:00,,0819.8,5.01,0.00,24.8,23.8,00.0,33.7,26.7,20.4,0000.0,0002.92,0002.24,0002.09
2022-05-20 17:41:00,,0819.8,5.00,0.00,24.8,23.8,00.0,33.7,26.7,20.4,0000.0,0003.00,0002.25,0002.09
2022-05-20 17:42:00,,0819.8,5.00,0.00,24.8,23.8,00.0,33.7,26.7,20.5,0000.0,0003.01,0002.25,0002.08
2022-05-20 17:43:00,,0819.9,5.00,0.00,24.8,23.8,00.0,33.7,26.7,20.4,0000.0,0002.97,0002.21,0002.04
2022-05-20 17:44:00,,0819.8,5.00,0.00,24.8,23.8,00.0,33.7,26.7,20.5,0000.0,0003.04,0002.20,0002.02
2022-05-20 17:45:00,,0819.7,5.00,0.00,24.8,23.8,00.0,33.7,26.7,20.5,0000.0,0003.12,0002.20,0002.01
2022-05-20 17:46:00,,0819.6,4.99,0.00,24.8,23.8,00.0,33.7,26.7,20.5,0000.0,0003.12,0002.20,0002.00
2022-05-20 17:47:00,,0819.5,5.00,0.00,24.8,23.8,00.0,33.7,26.7,20.5,0000.0,0003.10,0002.18,0001.99
2022-05-20 17:48:00,,0819.5,5.00,0.00,24.8,23.8,00.0,33.7,26.8,20.6,0000.0,0003.08,0002.16,0001.97
2022-05-20 17:49:00,,0819.5,5.00,0.00,24.8,23.8,00.0,33.7,26.8,20.5,0000.0,0003.03,0002.11,0001.92
2022-05-20 17:50:00,,0819.5,5.00,0.00,24.8,23.8,00.0,33.7,26.8,20.5,0000.0,0002.83,0002.05,0001.88
2022-05-20 17:51:00,,0819.7,5.01,0.00,24.8,23.8,00.0,33.7,26.8,20.6,0000.0,0002.63,0001.98,0001.84
2022-05-20 17:52:00,,0819.8,5.00,0.00,24.8,23.8,00.0,33.7,26.8,20.8,0000.0,0002.46,0001.93,0001.82
2022-05-20 17:53:00,,0819.9,5.00,0.00,24.8,23.8,00.0,33.7,26.8,21.0,0000.0,0002.40,0001.90,0001.80
2022-05-20 17:54:00,,0819.9,5.00,0.00,24.8,23.8,00.0,33.8,26.8,20.9,0000.0,0002.39,0001.90,0001.79
2022-05-20 17:55:00,,0820.0,5.01,0.00,24.9,23.9,00.0,33.8,26.8,20.8,0000.0,0002.30,0001.86,0001.78
2022-05-20 17:56:00,,0820.0,5.00,0.00,24.9,23.9,00.0,33.8,26.8,20.6,0000.0,0002.12,0001.82,0001.75
2022-05-20 17:57:00,,0820.1,4.99,0.00,24.9,23.9,00.0,33.8,26.8,20.6,0000.0,0002.20,0001.83,0001.74
2022-05-20 17:58:00,,0820.2,5.01,0.00,24.9,23.9,00.0,33.8,26.8,20.6,0000.0,0002.24,0001.82,0001.71
2022-05-20 17:59:00,,0820.2,4.99,0.00,24.9,23.9,00.0,33.8,26.8,20.8,0000.0,0002.29,0001.83,0001.69
